Date,TemperatureHighF,TemperatureAvgF,TemperatureLowF,DewpointHighF,DewpointAvgF,DewpointLowF,HumidityHigh,HumidityAvg,HumidityLow,PressureMaxIn,PressureMinIn,WindSpeedMaxMPH,WindSpeedAvgMPH,GustSpeedMaxMPH,PrecipitationSumIn
2014-1-1,49.1,39.7,29.7,39.0,33.2,28.0,97,79,56,29.41,29.18,6,0,6,0.00
2014-1-2,50.7,41.7,25.3,50.0,38.8,18.0,100,89,70,29.20,28.84,13,1,13,0.23
2014-1-3,36.7,25.6,19.1,21.0,15.7,14.0,84,65,42,29.45,29.18,11,1,11,0.00
2014-1-4,35.7,29.8,21.5,29.0,20.4,16.0,88,68,50,29.46,29.25,5,0,5,0.00
2014-1-5,48.0,39.9,33.8,48.0,38.4,29.0,100,94,81,29.26,28.82,9,0,9,0.10
2014-1-6,47.7,24.0,10.9,47.0,17.3,0.0,99,73,52,29.45,28.87,10,2,10,0.05
2014-1-7,23.9,13.6,4.7,8.0,3.3,0.0,72,58,40,29.57,29.45,9,1,9,0.00
2014-1-8,50.0,27.9,13.3,18.0,13.0,8.0,85,57,19,29.58,29.47,5,0,5,0.00
2014-1-9,48.5,35.9,24.5,39.0,27.0,18.0,88,69,42,29.56,29.43,5,0,5,0.03
2014-1-10,48.8,44.1,38.3,49.0,43.5,35.0,100,97,83,29.43,29.08,2,0,4,0.25
2014-1-11,66.2,55.1,47.1,61.0,50.2,38.0,100,86,53,29.08,28.78,13,1,13,1.26
2014-1-12,62.4,45.1,32.6,44.0,37.1,32.0,99,77,39,29.25,29.02,8,0,9,0.00
2014-1-13,57.1,43.0,30.7,47.0,38.8,29.0,99,87,53,29.23,28.96,10,0,10,0.19
2014-1-14,60.1,48.9,35.0,50.0,42.4,32.0,100,81,43,29.09,28.88,9,0,9,0.06
2014-1-15,48.7,38.8,29.6,36.0,29.9,18.0,98,71,38,29.12,29.02,10,1,10,0.00
2014-1-16,47.4,33.1,22.9,23.0,18.3,14.0,78,56,27,29.18,29.03,9,1,9,0.00
2014-1-17,52.0,37.2,26.6,33.0,23.6,16.0,88,59,31,29.15,28.96,16,1,16,0.00
2014-1-18,44.9,33.0,23.3,21.0,15.7,11.0,68,49,26,29.27,29.05,10,1,10,0.00
2014-1-19,53.1,40.9,30.4,31.0,26.7,18.0,85,58,40,29.16,29.01,10,1,10,0.00
2014-1-20,67.8,42.6,25.7,35.0,28.9,24.0,94,65,23,29.13,28.95,10,0,10,0.00
2014-1-21,46.9,36.0,22.5,36.0,26.8,14.0,89,69,49,29.10,28.81,13,2,13,0.00
2014-1-22,35.6,23.2,13.9,14.0,5.8,0.0,66,46,24,29.22,29.09,10,1,10,0.00
2014-1-23,37.6,25.8,18.0,16.0,11.1,0.0,75,52,37,29.58,29.20,10,1,12,0.00
2014-1-24,38.7,20.5,9.1,8.0,2.9,0.0,69,46,18,29.66,29.32,9,1,9,0.00
2014-1-25,45.6,28.1,11.1,23.0,14.2,4.0,84,56,31,29.33,28.92,13,1,13,0.00
2014-1-26,55.0,39.1,23.9,33.0,27.1,21.0,86,62,40,29.08,28.96,13,1,13,0.00
2014-1-27,58.2,45.0,28.4,41.0,29.0,8.0,85,54,34,29.18,28.94,11,1,11,0.00
2014-1-28,28.3,23.0,19.7,21.0,12.5,4.0,87,65,36,29.28,29.16,8,1,8,0.00
2014-1-29,31.9,19.4,10.6,16.0,7.6,4.0,83,58,33,29.39,29.26,6,0,6,0.04
2014-1-30,42.7,22.4,5.6,21.0,12.6,4.0,90,67,35,29.41,29.22,6,0,6,0.08
2014-1-31,60.7,33.9,18.4,26.0,20.3,14.0,92,64,18,29.30,29.18,6,0,6,0.02
2014-2-1,58.1,40.6,24.7,44.0,31.6,21.0,90,71,42,29.26,29.16,6,0,6,0.00
2014-2-2,71.9,52.6,35.6,59.0,48.3,33.0,99,87,58,29.21,28.98,11,0,12,0.03
2014-2-3,64.1,50.7,35.9,60.0,47.1,35.0,98,88,69,29.23,28.93,12,1,13,0.32
2014-2-4,47.1,41.3,33.1,44.0,39.8,32.0,100,94,87,29.28,29.07,8,0,9,0.09
2014-2-5,46.6,41.0,30.0,47.0,38.1,26.0,100,89,74,29.29,28.88,11,1,11,0.40
2014-2-6,40.7,32.5,27.3,29.0,24.9,23.0,83,73,59,29.39,29.26,10,1,10,0.00
2014-2-7,51.1,36.5,25.6,31.0,27.1,24.0,92,70,40,29.41,29.29,6,0,6,0.00
2014-2-8,57.0,42.4,33.9,35.0,31.4,28.0,89,67,41,29.32,29.18,8,0,8,0.00
2014-2-9,61.4,44.6,31.3,42.0,36.8,29.0,94,76,48,29.25,29.09,11,0,11,0.00
2014-2-10,45.1,40.6,35.7,40.0,36.2,32.0,95,84,77,29.23,29.13,7,0,7,0.00
2014-2-11,38.3,35.5,34.2,37.0,33.8,32.0,97,94,79,29.31,29.18,7,0,7,0.52
2014-2-12,34.2,30.1,28.3,33.0,29.1,26.0,97,95,91,29.30,28.88,12,0,12,0.17
2014-2-13,47.1,35.1,29.6,38.0,31.7,26.0,100,87,49,28.96,28.80,9,0,9,0.31
2014-2-14,58.1,41.6,27.7,42.0,33.1,26.0,98,75,43,28.99,28.77,11,1,11,0.14
2014-2-15,47.5,37.4,29.2,42.0,29.0,21.0,95,72,39,29.20,28.75,12,2,12,0.03
2014-2-16,64.7,42.7,27.9,36.0,29.8,23.0,91,65,28,29.22,29.13,9,0,9,0.00
2014-2-17,65.2,47.9,30.2,50.0,36.7,28.0,95,69,36,29.29,29.13,13,1,13,0.06
2014-2-18,73.6,54.9,37.4,57.0,45.1,36.0,100,74,38,29.29,29.13,14,1,14,0.00
2014-2-19,68.5,62.1,53.4,58.0,56.4,51.0,94,84,70,29.15,29.08,12,1,12,0.00
2014-2-20,74.5,62.4,52.2,60.0,55.7,50.0,98,81,55,29.17,28.94,14,1,14,0.00
2014-2-21,66.3,54.2,38.8,61.0,40.9,26.0,97,65,27,29.17,28.88,20,2,20,0.01
2014-2-22,67.5,48.5,35.0,38.0,31.0,24.0,87,57,20,29.27,29.13,4,0,7,0.00
2014-2-23,72.2,51.8,36.5,42.0,36.4,31.0,90,61,23,29.16,29.00,11,1,11,0.00
2014-2-24,63.3,50.4,40.7,43.0,34.0,24.0,87,56,29,29.21,29.05,9,1,9,0.00
2014-2-25,60.8,46.7,36.0,42.0,36.3,28.0,93,68,49,29.19,29.01,12,0,12,0.05
2014-2-26,46.1,38.9,30.5,32.0,25.3,14.0,84,57,44,29.03,28.90,11,1,11,0.02
2014-2-27,51.0,33.8,23.3,21.0,13.2,8.0,69,42,22,29.08,28.98,11,1,11,0.00
2014-2-28,54.9,39.9,22.5,26.0,20.3,16.0,80,49,25,29.25,29.07,6,0,9,0.00
2014-3-1,60.9,48.0,41.0,41.0,35.6,24.0,82,62,41,29.36,29.21,6,0,6,0.02
2014-3-2,73.6,55.4,40.8,52.0,44.6,37.0,90,70,45,29.28,29.00,13,1,13,0.00
2014-3-3,57.8,46.0,31.7,56.0,42.8,29.0,99,88,69,29.23,28.88,15,1,15,0.13
2014-3-4,43.0,38.0,31.7,35.0,29.0,24.0,96,70,52,29.27,29.18,8,0,8,0.00
2014-3-5,63.4,45.1,33.3,39.0,32.1,24.0,84,61,39,29.25,29.11,7,0,7,0.00
2014-3-6,43.0,39.7,36.6,38.0,31.0,21.0,96,72,41,29.25,29.05,6,1,17,0.19
2014-3-7,61.6,45.8,38.0,47.0,41.9,37.0,99,87,57,29.12,28.99,6,0,6,0.17
2014-3-8,70.9,50.6,33.4,45.0,40.1,32.0,100,72,35,29.23,29.10,9,0,9,0.00
2014-3-9,71.8,55.4,42.5,47.0,43.2,40.0,92,67,39,29.26,29.15,10,1,10,0.00
2014-3-10,73.4,55.3,40.8,49.0,44.0,39.0,95,69,39,29.20,29.00,11,1,11,0.00
2014-3-11,80.7,60.0,41.5,54.0,47.7,40.0,97,68,40,29.03,28.80,9,1,9,0.00
2014-3-12,70.2,57.0,39.8,60.0,50.0,28.0,99,79,57,29.04,28.62,10,2,14,0.31
2014-3-13,52.9,40.5,32.2,28.0,22.8,18.0,69,50,26,29.31,29.03,14,2,14,0.00
2014-3-14,67.0,46.0,27.0,36.0,26.8,23.0,91,54,22,29.37,29.17,13,1,13,0.00
2014-3-15,69.4,56.8,44.0,47.0,42.1,36.0,82,60,41,29.22,29.08,15,0,15,0.00
2014-3-16,56.4,53.7,51.4,56.0,52.0,46.0,99,94,74,29.08,28.73,6,0,6,1.32
2014-3-17,52.5,44.9,38.6,53.0,44.5,38.0,100,98,96,28.94,28.70,9,0,9,0.12
2014-3-18,50.9,42.5,35.9,45.0,39.8,35.0,98,90,78,29.17,28.91,7,0,7,0.00
2014-3-19,59.3,48.4,42.2,52.0,45.2,41.0,98,90,73,29.22,29.10,9,0,9,0.02
2014-3-20,66.9,50.0,40.9,46.0,39.0,28.0,100,73,25,29.18,29.12,7,0,9,0.00
2014-3-21,70.3,50.0,31.2,41.0,33.1,28.0,98,61,21,29.24,29.10,6,0,8,0.00
2014-3-22,76.9,57.6,41.4,50.0,44.5,38.0,89,65,35,29.15,29.04,4,0,10,0.00
2014-3-23,60.9,52.1,46.2,49.0,43.2,32.0,95,74,50,29.23,29.02,11,1,11,0.01
2014-3-24,61.6,47.4,30.8,39.0,33.3,26.0,89,60,38,29.29,29.05,8,0,8,0.00
2014-3-25,50.1,43.3,34.2,41.0,29.3,18.0,91,59,38,29.24,28.96,16,2,16,0.00
2014-3-26,52.8,38.0,28.3,23.0,16.4,11.0,63,42,19,29.40,29.23,10,1,10,0.00
2014-3-27,68.2,48.6,30.1,44.0,28.0,21.0,78,49,23,29.42,29.21,17,1,17,0.00
2014-3-28,60.0,56.8,52.1,57.0,53.3,44.0,98,89,60,29.26,29.08,14,1,14,0.00
2014-3-29,66.1,56.8,45.5,60.0,53.5,39.0,100,90,71,29.11,28.84,13,1,13,0.03
2014-3-30,63.4,49.8,39.9,40.0,35.0,31.0,82,60,31,29.21,29.08,13,2,13,0.00
2014-3-31,81.3,55.5,33.8,40.0,33.2,23.0,95,54,13,29.25,29.12,9,0,9,0.00
2014-4-1,85.4,62.3,44.3,44.0,37.6,26.0,84,49,12,29.25,29.11,10,1,11,0.00
2014-4-2,83.6,63.7,44.8,53.0,42.1,29.0,84,52,17,29.22,29.12,10,1,10,0.00
2014-4-3,82.3,67.5,54.6,62.0,55.9,52.0,94,70,42,29.16,29.02,13,1,13,0.00
2014-4-4,73.0,65.9,59.7,61.0,56.5,53.0,89,73,50,29.06,28.96,15,2,17,0.00
2014-4-5,67.4,56.4,46.8,56.0,41.6,33.0,91,61,31,29.15,29.04,8,1,9,0.00
2014-4-6,60.8,53.5,49.4,49.0,42.8,39.0,92,69,48,29.17,29.00,8,0,8,0.11
2014-4-7,57.9,51.4,48.0,58.0,50.9,48.0,100,99,92,29.03,28.74,8,1,8,3.56
2014-4-8,63.9,52.8,42.9,50.0,43.7,40.0,98,75,43,28.89,28.79,9,1,9,0.00
2014-4-9,68.6,55.4,46.5,46.0,41.6,35.0,89,64,32,29.24,28.89,11,1,11,0.00
2014-4-10,77.4,56.3,37.3,45.0,39.3,36.0,98,61,24,29.35,29.21,8,1,11,0.00
2014-4-11,74.2,57.7,42.6,50.0,44.7,41.0,95,66,36,29.33,29.18,11,1,12,0.03
2014-4-12,83.0,64.0,46.4,55.0,50.2,44.0,98,67,33,29.29,29.15,12,0,12,0.00
2014-4-13,80.8,66.1,51.6,60.0,54.5,50.0,97,70,42,29.25,29.06,15,1,15,0.00
2014-4-14,69.0,65.3,62.6,64.0,59.3,55.0,96,82,63,29.07,28.88,14,1,14,0.18
2014-4-15,63.3,50.2,37.1,62.0,45.5,28.0,100,84,62,29.19,28.76,15,2,15,0.41
2014-4-16,63.9,45.4,29.0,33.0,30.2,26.0,93,59,29,29.38,29.19,10,0,10,0.00
2014-4-17,67.4,53.6,39.6,42.0,36.4,31.0,79,54,37,29.50,29.36,11,0,11,0.00
2014-4-18,57.5,52.7,48.2,48.0,43.4,37.0,98,74,48,29.40,29.20,9,0,9,0.01
2014-4-19,63.8,56.4,49.2,56.0,51.5,43.0,100,85,61,29.27,29.15,12,1,13,0.00
2014-4-20,78.0,61.0,46.6,49.0,44.8,41.0,91,59,32,29.33,29.19,10,1,11,0.00
2014-4-21,81.1,61.1,42.6,53.0,46.5,41.0,97,64,29,29.27,29.05,8,0,8,0.00
2014-4-22,68.5,60.7,52.0,63.0,56.7,50.0,96,88,73,29.05,28.91,6,0,6,0.01
2014-4-23,78.3,63.5,51.5,59.0,47.9,38.0,99,64,27,29.06,28.93,8,0,8,0.00
2014-4-24,81.5,61.4,40.8,54.0,45.3,39.0,95,61,33,29.14,28.96,9,0,9,0.00
2014-4-25,79.0,67.1,56.8,63.0,55.9,53.0,93,71,44,29.05,28.88,14,0,14,0.00
2014-4-26,83.5,64.8,47.2,54.0,49.1,43.0,98,64,26,29.14,29.02,13,0,13,0.00
2014-4-27,84.0,64.9,51.0,66.0,57.2,49.0,98,80,42,29.10,28.96,9,0,9,0.08
2014-4-28,77.8,68.2,59.3,69.0,64.8,59.0,100,91,70,29.03,28.84,10,0,11,0.00
2014-4-29,76.9,70.6,65.3,68.0,64.2,62.0,96,82,63,29.00,28.76,20,2,22,0.03
2014-4-30,69.8,64.9,61.8,64.0,62.4,60.0,99,93,81,29.02,28.88,14,1,14,0.00
2014-5-1,66.8,57.7,49.8,60.0,50.4,44.0,98,79,46,29.11,29.01,8,0,8,0.00
2014-5-2,71.1,58.6,48.5,50.0,45.4,41.0,93,66,34,29.09,28.97,5,0,7,0.00
2014-5-3,75.4,60.7,44.4,50.0,46.6,42.0,96,64,36,29.13,29.03,8,0,8,0.00
2014-5-4,85.0,66.1,48.6,56.0,50.4,47.0,97,64,30,29.20,29.07,10,0,10,0.00
2014-5-5,87.7,69.8,52.1,61.0,54.9,50.0,96,65,30,29.15,28.99,9,0,9,0.00
2014-5-6,86.9,71.2,55.3,62.0,56.0,53.0,95,64,33,29.10,29.00,8,0,8,0.00
2014-5-7,85.8,69.7,53.3,64.0,53.1,43.0,97,63,23,29.21,29.08,10,0,10,0.00
2014-5-8,87.3,71.0,54.8,64.0,57.9,53.0,96,68,37,29.29,29.18,12,0,12,0.00
2014-5-9,76.4,67.5,63.5,67.0,62.7,59.0,99,86,70,29.25,29.15,11,1,11,0.01
2014-5-10,74.3,66.6,62.6,69.0,64.8,62.0,100,95,80,29.20,29.11,6,0,6,0.00
2014-5-11,82.1,70.2,62.2,71.0,65.8,61.0,100,88,60,29.26,29.14,6,0,6,0.00
2014-5-12,87.1,74.1,62.2,71.0,65.9,61.0,99,79,48,29.27,29.17,9,0,9,0.00
2014-5-13,86.3,73.8,62.6,70.0,63.8,60.0,98,74,45,29.24,29.14,8,0,8,0.00
2014-5-14,82.4,70.0,60.8,67.0,63.0,59.0,98,81,52,29.20,29.02,11,0,11,0.01
2014-5-15,65.1,59.8,50.9,64.0,56.6,47.0,100,90,69,29.16,28.99,5,0,5,0.00
2014-5-16,68.1,56.0,44.6,51.0,45.5,38.0,97,71,41,29.23,29.11,9,0,9,0.00
2014-5-17,63.6,52.8,41.9,54.0,47.7,41.0,97,84,66,29.33,29.21,7,0,7,0.00
2014-5-18,60.9,56.8,53.8,60.0,55.6,52.0,99,96,88,29.33,29.24,4,0,4,0.02
2014-5-19,71.7,60.7,53.6,60.0,56.9,53.0,100,89,64,29.38,29.28,8,0,8,0.00
2014-5-20,82.0,66.6,52.8,67.0,59.0,52.0,99,80,49,29.37,29.21,9,0,9,0.00
2014-5-21,85.3,71.4,57.0,67.0,60.0,56.0,98,72,40,29.28,29.14,9,0,9,0.00
2014-5-22,85.3,72.7,58.5,67.0,63.0,57.0,96,74,53,29.23,29.11,7,0,7,0.00
2014-5-23,86.6,75.6,65.1,70.0,66.1,63.0,96,75,55,29.18,29.10,5,0,5,0.00
2014-5-24,85.4,73.2,63.5,69.0,64.8,61.0,96,77,51,29.20,29.12,5,0,5,0.00
2014-5-25,86.7,73.5,62.2,68.0,64.5,61.0,97,76,48,29.24,29.14,8,0,8,0.00
2014-5-26,81.9,71.2,60.9,68.0,64.2,59.0,96,80,59,29.31,29.19,8,0,8,0.00
2014-5-27,82.9,73.1,62.7,72.0,66.9,61.0,97,83,64,29.25,29.11,6,0,6,0.00
2014-5-28,85.5,73.2,63.3,71.0,66.3,62.0,98,82,53,29.18,29.07,8,0,8,0.00
2014-5-29,85.3,72.3,63.5,72.0,67.2,62.0,98,87,54,29.15,29.07,9,0,9,0.13
2014-5-30,85.0,70.7,64.7,72.0,67.5,64.0,99,92,63,29.18,29.10,5,0,5,0.02
2014-5-31,87.0,72.8,63.4,73.0,68.0,63.0,100,88,55,29.21,29.10,7,0,7,0.00
2014-6-1,79.2,72.8,68.6,69.0,66.0,62.0,100,81,62,29.31,29.20,9,0,9,0.00
2014-6-2,79.8,71.0,63.0,63.0,58.1,54.0,91,67,43,29.33,29.20,8,0,8,0.00
2014-6-3,83.9,73.7,66.0,70.0,66.0,62.0,90,79,56,29.25,29.08,6,0,6,0.00
2014-6-4,86.8,76.2,65.1,73.0,68.9,64.0,98,81,58,29.11,28.95,8,0,8,0.00
2014-6-5,86.2,75.6,67.8,72.0,68.6,65.0,97,81,51,29.02,28.87,10,0,10,0.00
2014-6-6,85.2,73.8,65.5,76.0,69.5,65.0,100,88,70,29.06,28.96,6,0,6,0.00
2014-6-7,86.7,76.5,67.7,74.0,69.9,66.0,97,82,60,29.09,28.98,5,0,5,0.00
2014-6-8,84.1,74.2,65.3,74.0,69.3,64.0,99,86,70,29.10,28.93,6,0,6,0.01
2014-6-9,85.2,75.6,66.7,73.0,69.0,66.0,99,82,60,29.04,28.96,8,0,8,0.00
2014-6-10,86.8,72.6,65.1,74.0,68.0,64.0,99,88,56,29.10,28.99,13,0,13,0.16
2014-6-11,80.7,72.0,66.4,71.0,68.2,66.0,100,90,67,29.04,28.91,13,1,13,0.01
2014-6-12,80.7,71.2,64.0,71.0,66.8,63.0,99,88,68,29.04,28.94,5,0,5,0.01
2014-6-13,81.5,71.1,64.6,73.0,68.1,64.0,99,92,68,29.05,28.97,9,0,9,0.03
2014-6-14,86.0,74.7,65.5,73.0,68.6,65.0,100,84,57,29.13,29.04,4,0,4,0.00
2014-6-15,87.3,75.5,66.3,74.0,70.2,65.0,99,86,60,29.23,29.12,3,0,6,0.01
2014-6-16,90.7,78.6,69.9,77.0,72.4,69.0,100,84,57,29.30,29.18,6,0,6,0.00
2014-6-17,91.6,78.3,67.5,76.0,71.2,66.0,99,82,55,29.30,29.17,4,0,4,0.00
2014-6-18,92.5,78.7,69.3,76.0,71.7,69.0,99,82,49,29.25,29.17,5,0,5,0.00
2014-6-19,92.9,81.6,68.3,76.0,70.8,67.0,98,73,49,29.26,29.15,4,0,4,0.01
2014-6-20,91.5,78.9,68.2,75.0,70.5,66.0,98,78,54,29.19,29.07,5,0,5,0.00
2014-6-21,90.3,75.6,69.0,75.0,70.4,66.0,98,86,56,29.11,29.00,6,0,6,0.01
2014-6-22,89.3,77.2,67.1,73.0,69.1,66.0,98,79,52,29.07,28.94,6,0,6,0.00
2014-6-23,89.2,74.7,68.7,75.0,70.4,67.0,99,88,56,29.16,29.00,14,0,14,0.00
2014-6-24,84.2,73.3,67.9,75.0,70.4,67.0,100,93,69,29.20,29.10,7,0,7,0.01
2014-6-25,88.4,76.4,69.1,78.0,71.8,68.0,100,88,60,29.18,29.07,6,0,6,0.00
2014-6-26,85.7,74.4,68.9,75.0,71.1,68.0,99,91,64,29.18,29.07,12,0,12,0.00
2014-6-27,91.6,79.0,70.5,76.0,72.7,70.0,99,83,60,29.21,29.10,4,0,5,0.00
2014-6-28,89.5,78.0,70.7,75.0,71.5,69.0,99,82,58,29.31,29.20,8,0,8,0.01
2014-6-29,90.7,78.8,69.5,75.0,71.7,69.0,98,81,57,29.32,29.19,9,0,9,0.00
2014-6-30,83.3,74.4,68.9,77.0,71.4,66.0,98,91,77,29.23,29.07,10,0,10,0.00
2014-7-1,91.7,79.6,69.1,78.0,73.7,68.0,100,85,61,29.14,29.00,6,0,6,0.00
2014-7-2,94.8,81.2,70.7,77.0,72.6,70.0,99,79,47,29.10,29.04,4,0,4,0.00
2014-7-3,87.2,77.5,70.1,73.0,67.7,60.0,98,75,51,29.15,29.04,3,0,6,0.00
2014-7-4,82.8,72.5,62.1,67.0,62.3,58.0,89,72,56,29.25,29.13,5,0,5,0.00
2014-7-5,85.3,73.8,64.0,61.0,59.2,56.0,89,63,43,29.34,29.23,9,0,9,0.02
2014-7-6,84.8,73.7,62.6,69.0,64.8,59.0,91,76,52,29.27,29.12,7,0,7,0.00
2014-7-7,88.3,76.5,65.7,73.0,67.2,64.0,98,76,49,29.17,29.06,6,0,6,0.00
2014-7-8,88.2,76.6,64.4,73.0,67.3,63.0,97,76,52,29.19,29.08,10,0,10,0.00
2014-7-9,85.7,78.4,73.2,72.0,68.6,65.0,87,73,53,29.15,29.07,7,0,7,0.00
2014-7-10,86.0,77.0,68.9,73.0,70.2,67.0,96,81,61,29.19,29.09,7,0,7,0.00
2014-7-11,88.0,74.7,68.9,75.0,70.6,67.0,98,89,62,29.30,29.17,8,0,8,0.38
2014-7-12,87.9,76.6,67.2,74.0,70.7,67.0,100,85,57,29.32,29.19,7,0,7,0.00
2014-7-13,90.3,78.5,67.4,74.0,69.9,66.0,99,78,52,29.26,29.11,5,0,6,0.00
2014-7-14,88.6,78.1,69.9,76.0,72.1,69.0,98,84,65,29.16,29.02,9,0,9,0.00
2014-7-15,84.7,75.9,68.9,73.0,69.8,66.0,95,83,66,29.06,28.92,6,0,6,0.00
2014-7-16,82.8,71.8,61.9,67.0,60.5,56.0,96,71,44,29.07,28.97,6,0,6,0.00
2014-7-17,85.9,71.3,57.3,66.0,60.4,54.0,94,71,46,29.14,29.05,7,0,7,0.00
2014-7-18,78.2,70.8,65.4,70.0,66.4,62.0,96,87,70,29.22,29.13,4,0,4,0.02
2014-7-19,74.0,69.3,66.0,71.0,68.2,65.0,100,97,90,29.19,29.11,8,0,8,0.03
2014-7-20,73.5,69.7,65.2,72.0,68.0,64.0,99,95,87,29.19,29.10,7,0,7,0.00
2014-7-21,83.6,75.8,71.0,76.0,72.7,71.0,100,92,70,29.19,29.08,8,0,8,0.02
2014-7-22,83.9,76.8,71.6,73.0,71.7,70.0,98,86,68,29.24,29.14,6,0,6,0.01
2014-7-23,86.8,76.2,70.3,76.0,72.1,69.0,99,89,64,29.21,29.07,7,0,7,0.02
2014-7-24,87.8,75.7,69.6,76.0,72.5,69.0,100,92,63,29.10,29.01,10,0,10,0.01
2014-7-25,86.2,75.6,67.5,75.0,69.9,67.0,100,85,56,29.16,29.06,5,0,5,0.00
2014-7-26,89.3,75.8,64.2,73.0,66.6,60.0,99,77,42,29.16,29.08,5,0,5,0.00
2014-7-27,91.3,79.4,66.9,76.0,71.1,66.0,99,79,56,29.14,29.01,10,0,10,0.00
2014-7-28,89.0,80.4,68.2,74.0,69.3,62.0,89,71,49,29.08,28.98,8,0,8,0.00
2014-7-29,81.4,71.3,61.8,66.0,61.2,55.0,97,73,52,29.14,29.05,6,0,6,0.00
2014-7-30,82.9,69.0,55.2,65.0,58.8,53.0,96,73,44,29.17,29.10,6,0,6,0.00
2014-7-31,80.6,70.0,62.9,71.0,65.3,60.0,98,86,69,29.20,29.12,7,0,7,0.07
2014-8-1,80.7,71.7,65.4,70.0,66.8,65.0,99,86,67,29.19,29.10,6,0,6,0.01
2014-8-2,81.5,72.8,65.8,72.0,66.8,63.0,94,83,64,29.20,29.11,6,0,6,0.00
2014-8-3,88.4,74.8,64.9,71.0,67.3,64.0,99,80,50,29.21,29.09,6,0,6,0.00
2014-8-4,89.3,75.1,65.2,73.0,66.8,63.0,98,79,50,29.19,29.09,5,0,5,0.00
2014-8-5,88.4,74.5,63.6,72.0,63.9,60.0,99,74,40,29.20,29.11,5,0,5,0.00
2014-8-6,90.5,74.9,62.2,72.0,66.2,61.0,98,78,45,29.17,29.06,5,0,5,0.00
2014-8-7,94.7,78.4,67.2,76.0,70.2,66.0,98,80,44,29.13,29.01,7,0,7,0.53
2014-8-8,86.4,72.4,68.9,76.0,70.1,67.0,100,94,70,29.16,29.07,8,0,9,0.10
2014-8-9,86.5,75.0,68.5,78.0,72.1,68.0,100,92,71,29.17,29.03,11,0,11,0.04
2014-8-10,72.2,71.7,71.0,71.0,70.9,70.0,99,99,98,29.12,29.06,2,0,2,0.00
2014-9-27,74.9,68.7,63.5,64.0,62.6,61.0,94,82,68,29.14,29.08,7,0,8,0.00
2014-9-28,73.4,67.1,61.8,66.0,63.6,60.0,97,90,79,29.15,29.05,6,0,6,0.00
2014-9-29,69.5,66.8,65.2,67.0,65.3,64.0,98,96,89,29.06,28.92,5,0,5,0.05
2014-9-30,82.4,69.5,62.9,67.0,64.2,62.0,99,86,56,28.97,28.85,5,0,5,0.00
2014-10-1,83.2,68.1,56.5,69.0,61.5,56.0,100,83,46,29.02,28.90,5,0,5,0.00
2014-10-2,83.5,68.7,57.7,69.0,63.0,57.0,100,85,58,29.11,28.98,7,0,7,0.00
2014-10-3,75.9,69.0,64.2,70.0,66.2,62.0,100,92,81,29.00,28.84,6,0,7,0.12
2014-10-4,64.7,55.4,44.0,62.0,44.3,36.0,94,69,41,28.97,28.89,11,0,15,0.01
2014-10-5,68.7,52.1,37.0,48.0,41.8,36.0,99,73,38,29.05,28.93,6,0,6,0.00
2014-10-6,75.0,58.3,45.0,60.0,52.2,44.0,99,83,54,29.06,28.96,11,0,12,0.00
2014-10-7,78.0,65.7,55.3,65.0,59.3,54.0,98,82,59,29.10,28.97,12,1,12,0.00
2014-10-8,83.2,68.8,58.5,70.0,64.1,57.0,100,87,64,29.16,29.03,6,0,6,0.00
2014-10-9,84.2,71.0,62.2,71.0,65.5,61.0,99,85,55,29.15,29.03,6,0,6,0.00
2014-10-10,84.4,72.8,60.7,69.0,64.5,60.0,100,78,49,29.10,28.99,14,1,14,0.00
2014-10-11,81.0,71.5,65.4,72.0,66.8,64.0,97,87,66,29.06,28.97,8,0,8,0.01
2014-10-12,82.1,67.7,62.6,72.0,64.8,61.0,100,93,67,29.14,28.99,10,0,10,0.07
2014-10-13,79.7,67.2,60.4,71.0,64.8,60.0,100,93,71,29.14,28.93,8,0,8,0.02
2014-10-14,74.0,66.8,55.4,69.0,64.4,54.0,100,93,77,28.94,28.75,12,1,12,0.05
2014-10-15,67.0,58.0,50.2,57.0,52.6,50.0,100,84,58,28.92,28.84,11,0,12,0.00
2014-10-16,63.6,57.3,48.9,54.0,52.5,48.0,97,84,72,28.95,28.84,8,0,8,0.00
2014-10-17,78.3,59.0,43.0,60.0,52.2,43.0,100,82,49,28.99,28.88,9,0,9,0.00
2014-10-18,72.4,62.5,54.5,59.0,54.4,47.0,97,77,53,29.04,28.87,6,0,7,0.00
2014-10-19,72.6,55.9,45.4,54.0,48.5,44.0,95,79,45,29.15,29.03,6,0,6,0.00
2014-10-20,73.4,56.8,43.4,56.0,50.5,42.0,100,83,51,29.12,28.97,8,0,8,0.00
2014-10-21,74.5,58.7,47.8,59.0,52.4,47.0,99,82,53,29.03,28.94,7,0,7,0.00
2014-10-22,70.3,55.4,46.4,49.0,46.1,41.0,96,74,43,29.12,29.01,6,0,6,0.00
2014-10-23,69.0,52.9,41.5,50.0,45.7,40.0,97,79,48,29.13,29.01,7,0,7,0.00
2014-10-24,73.9,56.8,46.2,54.0,48.3,44.0,97,77,40,29.08,28.98,5,0,5,0.00
2014-10-25,76.0,57.5,45.6,54.0,49.0,44.0,96,77,45,29.08,28.99,5,0,5,0.00
2014-10-26,82.3,63.6,51.7,65.0,57.3,50.0,100,83,51,29.03,28.96,6,0,6,0.00
2014-10-27,85.2,64.8,50.9,68.0,58.8,50.0,100,84,52,29.10,29.01,6,0,6,0.00
2014-10-28,75.9,62.8,52.5,66.0,58.2,52.0,100,87,58,29.17,29.07,8,0,8,0.00
2014-10-29,71.1,57.0,47.8,67.0,55.0,46.0,100,94,84,29.09,29.01,5,0,5,0.00
2014-10-30,69.3,51.9,42.2,50.0,43.6,39.0,100,78,38,29.09,28.96,6,0,6,0.00
2014-10-31,61.4,48.7,39.6,49.0,43.3,33.0,98,83,59,28.97,28.86,10,0,10,0.00
2014-11-1,44.6,40.2,37.7,36.0,33.3,31.0,80,75,67,29.23,28.90,10,1,10,0.01
2014-11-2,57.2,41.9,32.1,33.0,31.4,28.0,86,68,39,29.35,29.21,7,0,7,0.00
2014-11-3,68.1,45.2,29.6,39.0,33.0,28.0,97,69,26,29.45,29.31,7,0,7,0.01
2014-11-4,70.8,50.0,36.6,44.0,37.9,33.0,96,69,27,29.36,29.23,9,0,9,0.00
2014-11-5,66.2,54.2,43.5,56.0,49.7,40.0,96,86,69,29.29,29.15,6,0,6,0.00
2014-11-6,72.4,59.7,48.2,63.0,50.9,36.0,99,76,45,29.16,28.93,13,1,14,0.00
2014-11-7,56.0,44.8,38.2,40.0,37.0,35.0,90,74,53,29.09,29.00,5,0,6,0.00
2014-11-8,63.1,45.3,32.7,43.0,37.1,32.0,98,77,36,29.04,28.94,8,0,8,0.00
2014-11-9,69.3,48.8,37.4,46.0,41.1,36.0,98,78,41,29.02,28.92,6,0,6,0.00
2014-11-10,72.3,49.7,34.0,49.0,41.2,33.0,99,77,38,29.08,28.98,6,0,6,0.00
2014-11-11,73.0,51.5,36.7,50.0,43.4,36.0,99,78,40,29.07,28.95,7,0,7,0.06
2014-11-12,61.6,51.6,42.8,55.0,47.2,40.0,97,86,70,29.10,28.98,5,0,5,0.00
2014-11-13,45.2,39.4,32.3,40.0,33.2,23.0,91,78,66,29.14,29.06,5,1,9,0.00
2014-11-14,43.9,32.2,24.5,23.0,20.0,18.0,75,60,39,29.22,29.08,5,1,8,0.01
2014-11-15,50.2,36.4,25.7,26.0,23.0,18.0,82,58,36,29.38,29.22,7,0,7,0.00
2014-11-16,51.6,44.3,36.9,45.0,35.5,24.0,99,73,51,29.27,28.95,7,0,7,0.02
2014-11-17,51.3,41.4,29.8,51.0,39.2,23.0,100,92,70,29.09,28.73,9,1,9,0.00
2014-11-18,36.9,28.5,21.9,23.0,17.9,16.0,79,63,47,29.32,29.09,9,1,10,0.01
2014-11-19,51.5,32.5,18.7,28.0,21.4,16.0,91,66,34,29.36,29.21,11,0,11,0.00
2014-11-20,61.8,41.0,26.0,40.0,31.5,23.0,92,71,39,29.23,29.15,9,0,9,0.00
2014-11-21,64.7,43.8,30.1,39.0,34.1,29.0,97,73,37,29.40,29.23,5,0,5,0.00
2014-11-22,63.3,47.1,32.6,35.0,31.4,28.0,95,59,29,29.45,29.20,8,0,8,0.00
2014-11-23,59.2,50.4,44.0,59.0,47.8,32.0,100,92,47,29.20,28.65,8,0,8,0.09
2014-11-24,77.5,63.8,51.8,63.0,56.3,47.0,100,80,47,28.99,28.74,13,1,13,0.01
2014-11-25,64.3,53.4,45.9,47.0,37.5,32.0,83,57,31,29.11,28.99,5,0,8,0.00
2014-11-26,58.0,48.3,41.7,37.0,33.5,26.0,75,58,33,29.10,28.94,12,0,12,0.00
2014-11-27,46.8,41.4,32.7,36.0,31.5,24.0,79,67,53,29.36,29.02,10,1,11,0.00
2014-11-28,51.2,35.6,26.6,26.0,24.2,21.0,85,65,33,29.37,29.22,6,0,6,0.00
2014-11-29,59.6,42.2,26.2,38.0,31.0,24.0,94,68,39,29.29,29.18,6,0,9,0.00
2014-11-30,69.0,52.1,38.6,54.0,44.9,35.0,90,78,52,29.33,29.21,10,1,11,0.00
2014-12-1,71.9,56.0,40.6,59.0,50.4,40.0,99,84,61,29.40,29.27,7,0,7,0.00
2014-12-2,74.1,54.5,41.4,56.0,48.0,40.0,100,82,48,29.34,29.21,6,0,9,0.00
2014-12-3,68.4,55.1,46.2,57.0,50.7,44.0,97,87,66,29.31,29.22,6,0,6,0.00
2014-12-4,67.4,55.6,47.3,59.0,52.5,46.0,98,90,72,29.32,29.22,5,0,5,0.00
2014-12-5,57.1,54.3,51.7,54.0,53.1,50.0,99,96,92,29.40,29.27,4,0,4,0.01
2014-12-6,65.1,53.9,46.5,64.0,53.3,45.0,100,98,90,29.28,29.08,10,1,10,0.44
2014-12-7,64.2,48.4,39.4,46.0,39.7,29.0,98,76,34,29.33,29.20,8,1,8,0.00
2014-12-8,48.4,43.4,37.3,36.0,31.0,26.0,89,61,46,29.34,29.17,7,0,7,0.00
2014-12-9,53.4,41.9,32.9,41.0,35.6,32.0,97,80,56,29.18,29.04,11,1,11,0.01
2014-12-10,49.1,40.2,33.8,37.0,33.1,28.0,88,76,58,29.16,29.06,10,1,10,0.00
2014-12-11,52.4,39.3,30.8,32.0,28.8,26.0,86,67,40,29.19,29.05,9,1,9,0.00
2014-12-12,62.3,42.8,29.7,29.0,25.1,21.0,84,54,21,29.30,29.18,3,0,7,0.00
2014-12-13,61.6,44.8,33.6,39.0,30.5,23.0,83,58,36,29.21,29.11,4,1,8,0.00
2014-12-14,53.9,39.1,31.6,38.0,33.0,29.0,94,79,52,29.12,29.02,8,1,8,0.00
2014-12-15,64.4,44.1,28.9,44.0,35.6,28.0,97,76,40,29.09,29.00,6,0,6,0.00
2014-12-16,58.6,53.1,43.2,57.0,45.8,38.0,99,78,55,29.15,28.93,7,1,11,0.11
2014-12-17,48.3,41.6,37.1,41.0,37.9,35.0,96,87,76,29.22,29.12,8,0,8,0.00
2014-12-18,55.4,42.2,35.1,39.0,35.7,32.0,92,79,51,29.19,29.09,7,0,7,0.00
2014-12-19,52.9,42.3,33.1,40.0,35.7,32.0,97,79,59,29.16,29.09,5,0,5,0.00
2014-12-20,51.5,45.9,40.3,49.0,44.0,38.0,98,94,88,29.20,29.10,4,0,4,0.11
2014-12-21,50.8,48.5,45.9,47.0,46.1,44.0,95,91,86,29.21,29.08,6,0,6,0.00
2014-12-22,49.1,45.7,43.7,47.0,45.1,44.0,100,98,90,29.08,28.89,8,0,8,0.09
2014-12-23,53.6,46.6,43.1,53.0,46.5,43.0,100,100,100,28.96,28.71,7,0,7,0.00
2014-12-24,61.8,54.0,49.1,61.0,53.3,47.0,100,98,93,28.91,28.64,8,0,8,0.00
2014-12-25,58.2,46.1,34.9,47.0,40.5,33.0,97,83,57,29.23,28.91,5,0,7,0.01
2014-12-26,65.0,44.1,31.6,47.0,37.8,32.0,100,82,40,29.34,29.20,4,0,4,0.01
2014-12-27,64.1,48.9,35.9,54.0,44.9,35.0,99,88,60,29.36,29.14,4,0,4,0.05
2014-12-28,65.3,59.5,54.4,64.0,58.9,54.0,100,99,94,29.18,29.03,4,0,7,0.17
2014-12-29,64.3,59.1,56.0,60.0,57.3,56.0,100,95,82,29.13,29.01,8,0,8,0.02
2014-12-30,57.0,49.0,38.2,56.0,45.5,36.0,97,89,70,29.38,29.10,8,1,8,0.01
2014-12-31,52.4,42.0,34.5,44.0,38.5,33.0,99,88,67,29.45,29.31,6,0,6,0.01
2015-1-1,58.9,44.3,32.5,44.0,35.5,32.0,96,75,38,29.34,29.24,6,0,6,0.06
2015-1-2,52.6,48.7,44.8,53.0,48.2,43.0,100,98,94,29.35,29.21,4,0,4,0.46